When you browse on this site, cookies collect data to enhance your experience and personalize the content and advertising you see.
Visit our Privacy Policy to learn more. By continuing to use the site, you agree to this use of cookies and data.
EN

Hourly Weather Demeshkino

Today, 18 September, Friday

Time Temperature Precipitation Wind Pressure Humidity
00:00 +6°C° 0.4 mm 8 mps 747 mmHg 88%
01:00 +6°C° 0.4 mm 8 mps 748 mmHg 88%
02:00 +6°C° 0 mm 8 mps 749 mmHg 88%
03:00 +6°C° 0.1 mm 8 mps 749 mmHg 87%
04:00 +6°C° 0.1 mm 8 mps 749 mmHg 85%
05:00 +7°C° 0.1 mm 8 mps 749 mmHg 84%
06:00 +8°C° 0 mm 7 mps 750 mmHg 82%
07:00 +8°C° 0 mm 7 mps 751 mmHg 80%
08:00 +8°C° 0 mm 7 mps 752 mmHg 79%
09:00 +8°C° 0 mm 7 mps 752 mmHg 75%
10:00 +9°C° 0 mm 7 mps 753 mmHg 72%
11:00 +9°C° 0 mm 7 mps 754 mmHg 69%
12:00 +10°C° 0 mm 7 mps 754 mmHg 66%
13:00 +11°C° 0 mm 7 mps 754 mmHg 62%
14:00 +11°C° 0 mm 6 mps 755 mmHg 59%
15:00 +12°C° 0 mm 5 mps 755 mmHg 59%
16:00 +12°C° 0 mm 4 mps 754 mmHg 60%
17:00 +12°C° 0 mm 3 mps 754 mmHg 61%
18:00 +11°C° 0 mm 3 mps 755 mmHg 65%
19:00 +10°C° 0 mm 3 mps 755 mmHg 69%
20:00 +9°C° 0 mm 3 mps 755 mmHg 72%
21:00 +9°C° 0 mm 3 mps 754 mmHg 72%
22:00 +10°C° 0 mm 4 mps 754 mmHg 72%
23:00 +11°C° 0 mm 4 mps 754 mmHg 72%

Tomorrow, 19 September, Saturday

Time Temperature Precipitation Wind Pressure Humidity
00:00 +10°C° 0 mm 4 mps 754 mmHg 74%
01:00 +10°C° 0 mm 4 mps 754 mmHg 77%
02:00 +10°C° 0 mm 3 mps 754 mmHg 79%
03:00 +10°C° 0 mm 3 mps 754 mmHg 83%
04:00 +9°C° 0 mm 3 mps 754 mmHg 88%
05:00 +9°C° 0 mm 3 mps 754 mmHg 92%
06:00 +10°C° 0 mm 3 mps 754 mmHg 89%
07:00 +10°C° 0 mm 4 mps 754 mmHg 86%
08:00 +11°C° 0 mm 4 mps 754 mmHg 83%
09:00 +12°C° 0 mm 4 mps 754 mmHg 75%
10:00 +13°C° 0 mm 5 mps 755 mmHg 67%
11:00 +14°C° 0 mm 5 mps 755 mmHg 59%
12:00 +14°C° 0 mm 5 mps 755 mmHg 57%
13:00 +15°C° 0 mm 5 mps 755 mmHg 55%
14:00 +15°C° 0 mm 5 mps 755 mmHg 52%
15:00 +14°C° 0 mm 5 mps 755 mmHg 57%
16:00 +13°C° 0 mm 4 mps 755 mmHg 61%
17:00 +12°C° 0 mm 4 mps 755 mmHg 65%
18:00 +11°C° 0 mm 3 mps 755 mmHg 68%
19:00 +10°C° 0 mm 3 mps 755 mmHg 71%
20:00 +9°C° 0 mm 3 mps 755 mmHg 73%
21:00 +9°C° 0 mm 3 mps 756 mmHg 73%
22:00 +9°C° 0 mm 3 mps 756 mmHg 73%
23:00 +10°C° 0 mm 3 mps 756 mmHg 73%

Day after tomorrow, 20 September, Sunday

Time Temperature Precipitation Wind Pressure Humidity
00:00 +9°C° 0 mm 3 mps 757 mmHg 78%
01:00 +8°C° 0 mm 3 mps 757 mmHg 84%
02:00 +7°C° 0 mm 2 mps 757 mmHg 89%
03:00 +6°C° 0 mm 2 mps 757 mmHg 91%
04:00 +5°C° 0 mm 2 mps 757 mmHg 93%
05:00 +5°C° 0 mm 2 mps 757 mmHg 96%
06:00 +6°C° 0 mm 2 mps 758 mmHg 91%
07:00 +7°C° 0 mm 2 mps 758 mmHg 86%
08:00 +8°C° 0 mm 2 mps 758 mmHg 81%
09:00 +10°C° 0 mm 2 mps 758 mmHg 73%
10:00 +12°C° 0 mm 3 mps 758 mmHg 66%
11:00 +13°C° 0 mm 3 mps 758 mmHg 58%
12:00 +14°C° 0 mm 3 mps 758 mmHg 57%
13:00 +14°C° 0 mm 3 mps 758 mmHg 56%
14:00 +16°C° 0 mm 3 mps 757 mmHg 54%
15:00 +14°C° 0 mm 3 mps 757 mmHg 59%
16:00 +15°C° 0 mm 2 mps 757 mmHg 63%
17:00 +14°C° 0 mm 2 mps 757 mmHg 67%
18:00 +13°C° 0 mm 2 mps 757 mmHg 73%
19:00 +10°C° 0 mm 2 mps 757 mmHg 79%
20:00 +9°C° 0 mm 2 mps 757 mmHg 84%
21:00 +9°C° 0 mm 3 mps 756 mmHg 85%
22:00 +8°C° 0 mm 3 mps 756 mmHg 87%
23:00 +8°C° 0 mm 3 mps 756 mmHg 88%

21 September, Monday

Time Temperature Precipitation Wind Pressure Humidity
00:00 +8°C° 0 mm 3 mps 756 mmHg 85%
01:00 +9°C° 0 mm 3 mps 756 mmHg 83%
02:00 +9°C° 0 mm 3 mps 755 mmHg 81%
03:00 +8°C° 0 mm 3 mps 755 mmHg 82%
04:00 +8°C° 0 mm 3 mps 755 mmHg 84%
05:00 +8°C° 0 mm 3 mps 755 mmHg 86%
06:00 +9°C° 0 mm 3 mps 755 mmHg 84%
07:00 +8°C° 0 mm 4 mps 755 mmHg 82%
08:00 +10°C° 0 mm 4 mps 755 mmHg 80%
09:00 +12°C° 0 mm 4 mps 755 mmHg 76%
10:00 +13°C° 0 mm 3 mps 754 mmHg 72%
11:00 +16°C° 0 mm 3 mps 754 mmHg 68%
12:00 +17°C° 0 mm 3 mps 754 mmHg 67%
13:00 +18°C° 0 mm 3 mps 754 mmHg 65%
14:00 +18°C° 0 mm 3 mps 754 mmHg 63%
15:00 +18°C° 0 mm 3 mps 754 mmHg 67%
16:00 +17°C° 0 mm 2 mps 754 mmHg 71%
17:00 +17°C° 0 mm 2 mps 753 mmHg 75%
18:00 +15°C° 0 mm 2 mps 753 mmHg 80%
19:00 +14°C° 0 mm 2 mps 753 mmHg 85%
20:00 +13°C° 0 mm 2 mps 754 mmHg 89%
21:00 +12°C° 0 mm 2 mps 753 mmHg 91%
22:00 +12°C° 0 mm 2 mps 753 mmHg 93%
23:00 +12°C° 0 mm 2 mps 753 mmHg 95%

22 September, Tuesday

Time Temperature Precipitation Wind Pressure Humidity
00:00 +10°C° 0 mm 3 mps 753 mmHg 95%
01:00 +10°C° 0 mm 3 mps 753 mmHg 95%
02:00 +10°C° 0 mm 3 mps 753 mmHg 95%
03:00 +10°C° 0 mm 3 mps 753 mmHg 94%
04:00 +9°C° 0 mm 3 mps 752 mmHg 94%
05:00 +9°C° 0 mm 3 mps 752 mmHg 94%
06:00 +10°C° 0 mm 3 mps 752 mmHg 90%
07:00 +11°C° 0 mm 3 mps 752 mmHg 85%
08:00 +11°C° 0 mm 4 mps 752 mmHg 81%
09:00 +13°C° 0 mm 4 mps 752 mmHg 75%
10:00 +15°C° 0 mm 4 mps 752 mmHg 69%
11:00 +17°C° 0 mm 5 mps 752 mmHg 63%
12:00 +19°C° 0 mm 5 mps 751 mmHg 60%
13:00 +20°C° 0 mm 5 mps 751 mmHg 58%
14:00 +21°C° 0 mm 5 mps 750 mmHg 55%
15:00 +20°C° 0 mm 5 mps 750 mmHg 59%
16:00 +19°C° 0 mm 4 mps 749 mmHg 64%
17:00 +19°C° 0 mm 4 mps 749 mmHg 68%
18:00 +18°C° 0 mm 4 mps 749 mmHg 71%
19:00 +17°C° 0 mm 4 mps 749 mmHg 75%
20:00 +15°C° 0 mm 4 mps 748 mmHg 79%
21:00 +15°C° 0 mm 4 mps 748 mmHg 80%
22:00 +14°C° 0 mm 4 mps 748 mmHg 81%
23:00 +14°C° 0 mm 4 mps 748 mmHg 81%

23 September, Wednesday

Time Temperature Precipitation Wind Pressure Humidity
00:00 +14°C° 0 mm 4 mps 747 mmHg 81%
01:00 +14°C° 0 mm 4 mps 747 mmHg 80%
02:00 +14°C° 0 mm 4 mps 747 mmHg 79%
03:00 +14°C° 0 mm 4 mps 746 mmHg 80%
04:00 +14°C° 0 mm 4 mps 746 mmHg 80%
05:00 +14°C° 0 mm 4 mps 746 mmHg 81%
06:00 +14°C° 0 mm 5 mps 746 mmHg 79%
07:00 +15°C° 0 mm 5 mps 746 mmHg 77%
08:00 +16°C° 0 mm 5 mps 746 mmHg 76%
09:00 +17°C° 0 mm 5 mps 746 mmHg 71%
10:00 +19°C° 0 mm 5 mps 746 mmHg 67%
11:00 +21°C° 0 mm 5 mps 747 mmHg 63%
12:00 +21°C° 0 mm 5 mps 747 mmHg 60%
13:00 +22°C° 0 mm 5 mps 747 mmHg 57%
14:00 +23°C° 0 mm 5 mps 747 mmHg 55%
15:00 +21°C° 0.2 mm 4 mps 747 mmHg 64%
16:00 +20°C° 0.2 mm 3 mps 747 mmHg 73%
17:00 +18°C° 0.2 mm 2 mps 747 mmHg 81%
18:00 +18°C° 0.2 mm 2 mps 747 mmHg 85%
19:00 +18°C° 0.2 mm 1 mps 747 mmHg 89%
20:00 +16°C° 0.2 mm 1 mps 747 mmHg 93%
21:00 +16°C° 0.6 mm 1 mps 747 mmHg 94%
22:00 +16°C° 0.6 mm 2 mps 747 mmHg 95%
23:00 +16°C° 0.6 mm 2 mps 747 mmHg 97%
Show more